• In Belarus
  • List of Countries
  • For 7 days
  • Water Temperature
  • Satellite Maps
  • Weather Map
  • Weather Widgets
  • user-avatar
    Login

    Hourly Weather Tskhinvali

    Today, 22 June, Friday

    Time Temperature Precipitation Wind Pressure Humidity
    00:00 +18°C° 0 mm 1 mps 683 mmHg 80%
    01:00 +18°C° 0 mm 1 mps 682 mmHg 80%
    02:00 +18°C° 0 mm 1 mps 682 mmHg 80%
    03:00 +18°C° 0 mm 1 mps 682 mmHg 82%
    04:00 +19°C° 0 mm 1 mps 682 mmHg 79%
    05:00 +19°C° 0 mm 1 mps 682 mmHg 77%
    06:00 +19°C° 0 mm 2 mps 682 mmHg 75%
    07:00 +21°C° 0 mm 2 mps 682 mmHg 68%
    08:00 +24°C° 0 mm 3 mps 682 mmHg 61%
    09:00 +26°C° 0 mm 3 mps 682 mmHg 54%
    10:00 +27°C° 0 mm 4 mps 682 mmHg 51%
    11:00 +27°C° 0 mm 4 mps 682 mmHg 48%
    12:00 +28°C° 0 mm 4 mps 682 mmHg 45%
    13:00 +28°C° 0.1 mm 4 mps 682 mmHg 45%
    14:00 +28°C° 0.1 mm 3 mps 682 mmHg 45%
    15:00 +28°C° 0.1 mm 3 mps 682 mmHg 45%
    16:00 +27°C° 0.2 mm 3 mps 681 mmHg 52%
    17:00 +26°C° 0.2 mm 2 mps 681 mmHg 59%
    18:00 +24°C° 0.2 mm 2 mps 681 mmHg 66%
    19:00 +23°C° 0.1 mm 1 mps 681 mmHg 71%
    20:00 +21°C° 0.1 mm 1 mps 681 mmHg 75%
    21:00 +19°C° 0.1 mm 1 mps 681 mmHg 79%
    22:00 +19°C° 0 mm 1 mps 680 mmHg 78%
    23:00 +18°C° 0 mm 1 mps 680 mmHg 77%

    Tomorrow, 23 June, Saturday

    Time Temperature Precipitation Wind Pressure Humidity
    00:00 +18°C° 0 mm 1 mps 680 mmHg 76%
    01:00 +18°C° 0.1 mm 1 mps 680 mmHg 75%
    02:00 +16°C° 0.1 mm 1 mps 680 mmHg 74%
    03:00 +16°C° 0.1 mm 1 mps 680 mmHg 73%
    04:00 +18°C° 0 mm 1 mps 680 mmHg 71%
    05:00 +19°C° 0 mm 1 mps 680 mmHg 68%
    06:00 +19°C° 0 mm 1 mps 681 mmHg 66%
    07:00 +21°C° 0 mm 1 mps 681 mmHg 59%
    08:00 +23°C° 0 mm 2 mps 681 mmHg 53%
    09:00 +25°C° 0 mm 2 mps 681 mmHg 47%
    10:00 +26°C° 0 mm 2 mps 681 mmHg 45%
    11:00 +27°C° 0 mm 3 mps 681 mmHg 42%
    12:00 +29°C° 0 mm 3 mps 681 mmHg 40%
    13:00 +28°C° 0.1 mm 3 mps 681 mmHg 43%
    14:00 +28°C° 0.1 mm 3 mps 681 mmHg 45%
    15:00 +28°C° 0.1 mm 3 mps 681 mmHg 47%
    16:00 +26°C° 0.3 mm 3 mps 680 mmHg 57%
    17:00 +24°C° 0.3 mm 2 mps 680 mmHg 66%
    18:00 +23°C° 0.3 mm 2 mps 680 mmHg 76%
    19:00 +20°C° 0.1 mm 2 mps 680 mmHg 80%
    20:00 +20°C° 0.1 mm 1 mps 681 mmHg 84%
    21:00 +19°C° 0.1 mm 1 mps 681 mmHg 88%
    22:00 +18°C° 0 mm 1 mps 681 mmHg 87%
    23:00 +18°C° 0 mm 1 mps 681 mmHg 86%

    Day after tomorrow, 24 June, Sunday

    Time Temperature Precipitation Wind Pressure Humidity
    00:00 +16°C° 0 mm 1 mps 681 mmHg 85%
    01:00 +16°C° 0 mm 1 mps 681 mmHg 84%
    02:00 +15°C° 0 mm 1 mps 681 mmHg 83%
    03:00 +15°C° 0 mm 1 mps 681 mmHg 83%
    04:00 +16°C° 0 mm 1 mps 681 mmHg 80%
    05:00 +18°C° 0 mm 1 mps 681 mmHg 77%
    06:00 +19°C° 0 mm 1 mps 682 mmHg 74%
    07:00 +22°C° 0 mm 1 mps 682 mmHg 66%
    08:00 +24°C° 0 mm 1 mps 682 mmHg 58%
    09:00 +26°C° 0 mm 1 mps 683 mmHg 50%
    10:00 +27°C° 0 mm 1 mps 683 mmHg 47%
    11:00 +28°C° 0 mm 2 mps 683 mmHg 44%
    12:00 +30°C° 0 mm 2 mps 683 mmHg 41%
    13:00 +29°C° 0.1 mm 2 mps 683 mmHg 43%
    14:00 +29°C° 0.1 mm 3 mps 683 mmHg 44%
    15:00 +29°C° 0.1 mm 3 mps 682 mmHg 46%
    16:00 +27°C° 0.7 mm 2 mps 682 mmHg 55%
    17:00 +26°C° 0.7 mm 2 mps 682 mmHg 64%
    18:00 +24°C° 0.7 mm 2 mps 682 mmHg 74%
    19:00 +23°C° 0.3 mm 2 mps 682 mmHg 78%
    20:00 +22°C° 0.3 mm 1 mps 682 mmHg 82%
    21:00 +20°C° 0.3 mm 1 mps 683 mmHg 86%
    22:00 +20°C° 0 mm 1 mps 683 mmHg 86%
    23:00 +19°C° 0 mm 1 mps 683 mmHg 85%

    25 June, Monday

    Time Temperature Precipitation Wind Pressure Humidity
    00:00 +19°C° 0 mm 1 mps 683 mmHg 84%
    01:00 +18°C° 0 mm 1 mps 682 mmHg 83%
    02:00 +18°C° 0 mm 1 mps 682 mmHg 81%
    03:00 +18°C° 0 mm 1 mps 682 mmHg 80%
    04:00 +19°C° 0 mm 1 mps 682 mmHg 77%
    05:00 +20°C° 0 mm 1 mps 683 mmHg 73%
    06:00 +21°C° 0 mm 1 mps 683 mmHg 70%
    07:00 +23°C° 0 mm 1 mps 683 mmHg 61%
    08:00 +25°C° 0 mm 2 mps 684 mmHg 52%
    09:00 +28°C° 0 mm 2 mps 684 mmHg 43%
    10:00 +29°C° 0 mm 2 mps 684 mmHg 41%
    11:00 +30°C° 0 mm 3 mps 684 mmHg 39%
    12:00 +31°C° 0 mm 3 mps 684 mmHg 37%
    13:00 +31°C° 0 mm 3 mps 684 mmHg 37%
    14:00 +33°C° 0 mm 3 mps 684 mmHg 36%
    15:00 +33°C° 0 mm 3 mps 684 mmHg 36%
    16:00 +31°C° 0.1 mm 3 mps 683 mmHg 40%
    17:00 +30°C° 0.1 mm 2 mps 683 mmHg 45%
    18:00 +29°C° 0.1 mm 2 mps 683 mmHg 50%
    19:00 +27°C° 0.2 mm 2 mps 683 mmHg 58%
    20:00 +24°C° 0.2 mm 2 mps 683 mmHg 66%
    21:00 +22°C° 0.2 mm 1 mps 683 mmHg 75%
    22:00 +21°C° 0 mm 1 mps 683 mmHg 75%
    23:00 +21°C° 0 mm 1 mps 683 mmHg 75%

    26 June, Tuesday

    Time Temperature Precipitation Wind Pressure Humidity
    00:00 +20°C° 0 mm 1 mps 683 mmHg 75%
    01:00 +20°C° 0 mm 1 mps 683 mmHg 73%
    02:00 +19°C° 0 mm 1 mps 682 mmHg 71%
    03:00 +19°C° 0 mm 1 mps 682 mmHg 68%
    04:00 +20°C° 0 mm 1 mps 682 mmHg 66%
    05:00 +21°C° 0 mm 1 mps 683 mmHg 63%
    06:00 +22°C° 0 mm 1 mps 683 mmHg 60%
    07:00 +24°C° 0 mm 1 mps 683 mmHg 53%
    08:00 +27°C° 0 mm 2 mps 683 mmHg 46%
    09:00 +29°C° 0 mm 2 mps 683 mmHg 39%
    10:00 +30°C° 0 mm 2 mps 683 mmHg 37%
    11:00 +31°C° 0 mm 2 mps 683 mmHg 35%
    12:00 +34°C° 0 mm 3 mps 683 mmHg 34%
    13:00 +34°C° 0 mm 3 mps 683 mmHg 33%
    14:00 +34°C° 0 mm 3 mps 683 mmHg 33%
    15:00 +34°C° 0 mm 3 mps 683 mmHg 33%
    16:00 +34°C° 0 mm 3 mps 683 mmHg 37%
    17:00 +32°C° 0 mm 2 mps 682 mmHg 42%
    18:00 +31°C° 0 mm 2 mps 682 mmHg 46%
    19:00 +28°C° 0 mm 2 mps 682 mmHg 54%
    20:00 +25°C° 0 mm 1 mps 682 mmHg 61%
    21:00 +22°C° 0 mm 1 mps 682 mmHg 69%
    22:00 +22°C° 0 mm 1 mps 682 mmHg 68%
    23:00 +21°C° 0 mm 1 mps 682 mmHg 67%

    27 June, Wednesday

    Time Temperature Precipitation Wind Pressure Humidity
    00:00 +21°C° 0 mm 1 mps 681 mmHg 65%
    01:00 +21°C° 0 mm 1 mps 681 mmHg 63%
    02:00 +20°C° 0 mm 1 mps 681 mmHg 61%
    03:00 +20°C° 0 mm 1 mps 681 mmHg 58%
    04:00 +21°C° 0 mm 1 mps 681 mmHg 57%
    05:00 +22°C° 0 mm 1 mps 681 mmHg 57%
    06:00 +23°C° 0 mm 1 mps 681 mmHg 56%
    07:00 +25°C° 0 mm 2 mps 681 mmHg 49%
    08:00 +28°C° 0 mm 2 mps 682 mmHg 43%
    09:00 +30°C° 0 mm 3 mps 682 mmHg 36%
    10:00 +33°C° 0 mm 3 mps 682 mmHg 35%
    11:00 +34°C° 0 mm 3 mps 682 mmHg 34%
    12:00 +35°C° 0 mm 3 mps 682 mmHg 32%
    13:00 +36°C° 0 mm 3 mps 681 mmHg 32%
    14:00 +36°C° 0 mm 3 mps 681 mmHg 31%
    15:00 +36°C° 0 mm 3 mps 681 mmHg 30%
    16:00 +35°C° 0 mm 3 mps 681 mmHg 34%
    17:00 +34°C° 0 mm 3 mps 681 mmHg 38%
    18:00 +34°C° 0 mm 2 mps 681 mmHg 41%
    19:00 +30°C° 0 mm 2 mps 681 mmHg 49%
    20:00 +27°C° 0 mm 1 mps 680 mmHg 56%
    21:00 +24°C° 0 mm 1 mps 680 mmHg 63%
    22:00 +23°C° 0 mm 1 mps 680 mmHg 63%
    23:00 +22°C° 0 mm 1 mps 680 mmHg 64%
    Show more